Salem, IL

5:58 PM CDT on June 24, 2017 (GMT -0500)
Salem-Leckrone

Weather History for KSLO - January, 2012

Change the Weather History Date:

Wednesday, January 4, 2012

  Actual Average Record
Temperature  
Mean Temperature 38 °F -  
Max Temperature 46 °F 38 °F 60 °F (1962)
Min Temperature 29 °F 21 °F -2 °F (1959)
Degree Days  
Heating Degree Days 28    
Moisture  
Dew Point 19 °F    
Average Humidity 49    
Maximum Humidity 58    
Minimum Humidity 40    
Precipitation  
Precipitation 0.00 in - - ()
Sea Level Pressure  
Sea Level Pressure 30.09 in    
Wind  
Wind Speed 12 mph (SW)    
Max Wind Speed 15 mph    
Max Gust Speed 21 mph    
Visibility 10 miles    
Events      
Averages and records for this station are not official NWS values.
T = Trace of Precipitation, MM = Missing Value Source: NWS Daily Summary

Daily Weather History Graph

Daily Weather History Graph

Search for Another Location

Airport or City:

Trip Planner

Search our weather history database for the weather conditions in past years. The results will help you decide how hot, cold, wet, or windy it might be!

Date:

Astronomy

Jan. 04, 2012 Rise Set
Actual Time 7:14 AM CST 4:47 PM CST
Civil Twilight 6:44 AM CST 5:17 PM CST
Nautical Twilight 6:11 AM CST 5:50 PM CST
Astronomical Twilight 5:39 AM CST 6:22 PM CST
Moon 1:09 PM CST (1/4) 3:02 AM CST (1/4)
Length of Visible Light 10h 32m
Length of Day
9h 33m
Waxing Gibbous, 81% of the Moon is Illuminated
Jan 4
Waxing Gibbous
Jan 9
Full
Jan 16
Last Quarter
Jan 23
New
Jan 30
First Quarter

Hourly Weather History & Observations

Time (CST) Temp. Windchill Dew Point Humidity Pressure Visibility Wind Dir Wind Speed Gust Speed Precip Events Conditions
12:15 AM 30.2 °F 20.2 °F 14.0 °F 51% 30.16 in 10.0 mi SSW 12.7 mph - N/A   Clear
12:35 AM 29.3 °F 19.1 °F 13.8 °F 53% 30.15 in 10.0 mi SSW 12.7 mph 17.3 mph N/A   Clear
12:55 AM 29.5 °F 19.9 °F 14.0 °F 53% 30.15 in 10.0 mi SSW 11.5 mph - N/A   Clear
1:15 AM 29.7 °F 19.6 °F 14.2 °F 53% 30.13 in 10.0 mi SSW 12.7 mph - N/A   Clear
1:35 AM 30.4 °F 20.5 °F 14.9 °F 53% 30.13 in 10.0 mi SSW 12.7 mph - N/A   Clear
1:55 AM 30.0 °F 20.5 °F 14.5 °F 53% 30.13 in 10.0 mi SSW 11.5 mph - N/A   Clear
2:15 AM 30.2 °F 20.2 °F 14.4 °F 52% 30.12 in 10.0 mi SSW 12.7 mph - N/A   Clear
2:35 AM 30.7 °F 20.9 °F 14.2 °F 50% 30.11 in 10.0 mi SSW 12.7 mph 18.4 mph N/A   Clear
2:55 AM 30.4 °F 20.0 °F 15.1 °F 53% 30.10 in 10.0 mi SSW 13.8 mph - N/A   Clear
3:15 AM 30.9 °F 21.2 °F 15.3 °F 52% 30.09 in 10.0 mi SSW 12.7 mph 17.3 mph N/A   Clear
3:35 AM 31.1 °F 21.4 °F 15.4 °F 52% 30.09 in 10.0 mi SSW 12.7 mph 19.6 mph N/A   Clear
3:55 AM 31.1 °F 21.9 °F 15.6 °F 53% 30.09 in 10.0 mi SSW 11.5 mph - N/A   Clear
4:15 AM 31.1 °F 22.4 °F 15.8 °F 53% 30.08 in 10.0 mi SSW 10.4 mph - N/A   Clear
4:35 AM 31.1 °F 22.4 °F 16.0 °F 54% 30.09 in 10.0 mi SSW 10.4 mph - N/A   Clear
4:55 AM 32.0 °F 23.6 °F 15.8 °F 51% 30.08 in 10.0 mi SSW 10.4 mph - N/A   Clear
5:15 AM 30.9 °F 22.2 °F 16.5 °F 55% 30.08 in 10.0 mi SSW 10.4 mph - N/A   Clear
5:35 AM 30.7 °F 22.0 °F 16.5 °F 56% 30.08 in 10.0 mi SSW 10.4 mph - N/A   Clear
5:55 AM 31.1 °F 22.4 °F 16.7 °F 55% 30.08 in 10.0 mi SSW 10.4 mph - N/A   Clear
6:15 AM 32.0 °F 23.0 °F 16.2 °F 52% 30.09 in 10.0 mi SSW 11.5 mph 19.6 mph N/A   Clear
6:35 AM 32.0 °F 23.0 °F 16.7 °F 53% 30.08 in 10.0 mi SSW 11.5 mph - N/A   Clear
6:55 AM 32.0 °F 22.1 °F 16.9 °F 54% 30.08 in 10.0 mi SSW 13.8 mph 18.4 mph N/A   Clear
7:15 AM 32.0 °F 22.1 °F 17.6 °F 55% 30.08 in 10.0 mi SSW 13.8 mph 20.7 mph N/A   Scattered Clouds
7:35 AM 32.2 °F 22.7 °F 17.1 °F 54% 30.08 in 10.0 mi SSW 12.7 mph - N/A   Scattered Clouds
7:55 AM 32.2 °F 23.2 °F 17.6 °F 55% 30.08 in 10.0 mi SW 11.5 mph - N/A   Scattered Clouds
8:15 AM 32.7 °F 23.4 °F 17.6 °F 54% 30.08 in 10.0 mi SSW 12.7 mph - N/A   Scattered Clouds
8:35 AM 32.5 °F 24.2 °F 17.6 °F 54% 30.08 in 10.0 mi SW 10.4 mph - N/A   Scattered Clouds
8:55 AM 34.0 °F 24.6 °F 18.0 °F 52% 30.08 in 10.0 mi SW 13.8 mph - N/A   Clear
9:15 AM 34.9 °F 26.2 °F 18.5 °F 51% 30.08 in 10.0 mi SW 12.7 mph - N/A   Clear
9:35 AM 36.3 °F 27.5 °F 18.3 °F 48% 30.08 in 10.0 mi SW 13.8 mph - N/A   Clear
9:55 AM 37.6 °F 30.5 °F 17.6 °F 44% 30.08 in 10.0 mi SW 10.4 mph - N/A   Clear
10:15 AM 39.0 °F 31.8 °F 18.3 °F 43% 30.09 in 10.0 mi WSW 11.5 mph - N/A   Clear
10:35 AM 39.6 °F 32.1 °F 18.5 °F 43% 30.09 in 10.0 mi West 12.7 mph - N/A   Clear
10:55 AM 40.5 °F 32.8 °F 19.2 °F 43% 30.08 in 10.0 mi WSW 13.8 mph - N/A   Clear
11:15 AM 41.5 °F 34.2 °F 19.2 °F 41% 30.07 in 10.0 mi WSW 13.8 mph - N/A   Clear
11:35 AM 42.3 °F 35.5 °F 19.8 °F 41% 30.05 in 10.0 mi WSW 12.7 mph 18.4 mph N/A   Clear
11:55 AM 43.0 °F 36.0 °F 20.1 °F 40% 30.05 in 10.0 mi West 13.8 mph 17.3 mph N/A   Clear
12:15 PM 43.2 °F 36.2 °F 20.7 °F 41% 30.05 in 10.0 mi West 13.8 mph - N/A   Clear
12:35 PM 44.1 °F 37.4 °F 21.2 °F 40% 30.05 in 10.0 mi West 13.8 mph 17.3 mph N/A   Clear
12:55 PM 44.6 °F 38.8 °F 21.6 °F 40% 30.03 in 10.0 mi WSW 11.5 mph - N/A   Clear
1:15 PM 45.5 °F 40.3 °F 22.5 °F 40% 30.02 in 10.0 mi West 10.4 mph 17.3 mph N/A   Clear
1:35 PM 46.4 °F 40.7 °F 23.0 °F 40% 30.03 in 10.0 mi West 12.7 mph - N/A   Clear
1:55 PM 46.8 °F - 24.1 °F 41% 30.04 in 10.0 mi West 12.7 mph 17.3 mph N/A   Clear
2:15 PM 46.6 °F - 24.6 °F 42% 30.06 in 10.0 mi West 15.0 mph - N/A   Clear
2:35 PM 46.6 °F - 25.0 °F 43% 30.06 in 10.0 mi West 11.5 mph - N/A   Clear
2:55 PM 46.8 °F - 25.5 °F 43% 30.06 in 10.0 mi West 9.2 mph - N/A   Clear
3:15 PM 46.9 °F - 25.5 °F 43% 30.07 in 10.0 mi West 8.1 mph - N/A   Clear
3:35 PM 46.8 °F - 26.1 °F 44% 30.07 in 10.0 mi West 9.2 mph - N/A   Clear
3:55 PM 44.4 °F 40.0 °F 26.4 °F 49% 30.08 in 10.0 mi West 8.1 mph - N/A   Clear
4:15 PM 43.2 °F 39.7 °F 26.6 °F 52% 30.09 in 10.0 mi West 5.8 mph - N/A   Clear
4:35 PM 41.5 °F 35.9 °F 26.6 °F 55% 30.11 in 10.0 mi West 9.2 mph - N/A   Clear
4:55 PM 40.1 °F 34.7 °F 26.4 °F 58% 30.11 in 10.0 mi West 8.1 mph - N/A   Clear
5:15 PM 39.4 °F 33.8 °F 25.7 °F 58% 30.13 in 10.0 mi WNW 8.1 mph - N/A   Clear
5:35 PM 41.4 °F 34.7 °F 25.5 °F 53% 30.14 in 10.0 mi NW 11.5 mph - N/A   Clear
5:55 PM 40.8 °F 34.5 °F 25.5 °F 55% 30.15 in 10.0 mi WNW 10.4 mph - N/A   Clear
6:15 PM 41.2 °F 36.6 °F 25.7 °F 54% 30.15 in 10.0 mi West 6.9 mph - N/A   Clear
6:35 PM 40.3 °F 34.9 °F 27.1 °F 59% 30.15 in 10.0 mi West 8.1 mph - N/A   Clear
6:55 PM 39.4 °F 33.8 °F 27.5 °F 62% 30.15 in 10.0 mi West 8.1 mph - N/A   Clear
7:15 PM 38.7 °F 32.9 °F 26.6 °F 62% 30.16 in 10.0 mi WNW 8.1 mph - N/A   Clear
7:35 PM 40.3 °F 34.4 °F 26.6 °F 58% 30.16 in 10.0 mi WNW 9.2 mph - N/A   Clear
7:55 PM 40.1 °F 33.6 °F 26.8 °F 59% 30.16 in 10.0 mi WNW 10.4 mph 16.1 mph N/A   Clear
8:15 PM 39.2 °F 34.2 °F 26.4 °F 60% 30.16 in 10.0 mi West 6.9 mph - N/A   Clear
8:35 PM 36.0 °F 30.3 °F 26.2 °F 68% 30.18 in 10.0 mi West 6.9 mph - N/A   Clear
8:55 PM 36.1 °F 31.4 °F 26.2 °F 67% 30.17 in 10.0 mi West 5.8 mph - N/A   Clear
9:15 PM 36.5 °F 31.0 °F 27.0 °F 68% 30.17 in 10.0 mi West 6.9 mph - N/A   Clear
9:35 PM 34.7 °F 28.8 °F 25.7 °F 70% 30.18 in 10.0 mi West 6.9 mph - N/A   Clear
9:55 PM 34.2 °F 29.0 °F 25.9 °F 72% 30.18 in 10.0 mi West 5.8 mph - N/A   Clear
10:15 PM 33.8 °F 28.6 °F 26.1 °F 73% 30.18 in 10.0 mi West 5.8 mph - N/A   Clear
10:35 PM 32.7 °F 29.6 °F 25.3 °F 74% 30.17 in 10.0 mi West 3.5 mph - N/A   Clear
10:55 PM 32.0 °F 27.5 °F 25.3 °F 76% 30.17 in 10.0 mi West 4.6 mph - N/A   Clear
11:15 PM 30.9 °F 26.2 °F 24.6 °F 77% 30.16 in 10.0 mi WSW 4.6 mph - N/A   Clear
11:35 PM 30.0 °F 24.1 °F 24.4 °F 80% 30.15 in 10.0 mi WSW 5.8 mph - N/A   Clear
11:55 PM 31.6 °F 27.0 °F 24.8 °F 76% 30.15 in 10.0 mi WSW 4.6 mph - N/A   Clear